Tracking 27079 objects as of 23-Mar-2023
HD Live streaming from Space Station
objects crossing your sky now

SL-16 DEB

Track SL-16 DEB now!
10-day predictions


NORAD ID: 39849
Int'l Code: 1992-093LB
Perigee: 826.5 km
Apogee: 950.9 km
Inclination: 70.9 °
Period: 102.6 minutes
Semi major axis: 7259 km
RCS: 0.0125 m2 (small)
Launch date: December 25, 1992
Source: Commonwealth of Independent States (former USSR) (CIS)
Launch site: TYURATAM MISSILE AND SPACE COMPLEX (TTMTR)

Note: This is SATELLITE DEBRIS
Your satellite tracking list
Your tracking list is empty




NASA's NSSDC Master Catalog

Two Line Element Set (TLE):
1 39849U 92093LB  23078.89587898  .00000725  00000-0  47646-3 0  9992
2 39849  70.8670 161.1730 0085622 169.7243 190.5650 14.03538814477334
Source of the keplerian elements: AFSPC